CDT,Max TemperatureF,Mean TemperatureF,Min TemperatureF,Max Dew PointF,MeanDew PointF,Min DewpointF,Max Humidity, Mean Humidity, Min Humidity, Max Sea Level PressureIn, Mean Sea Level PressureIn, Min Sea Level PressureIn, Max VisibilityMiles, Mean VisibilityMiles, Min VisibilityMiles, Max Wind SpeedMPH, Mean Wind SpeedMPH, Max Gust SpeedMPH,PrecipitationIn, CloudCover, Events, WindDirDegrees
2013-9-1,95,78,63,59,54,49,69,44,25,30.13,30.07,30.01,10,10,10,20,7,29,0.00,1,,19
2013-9-2,93,80,67,58,55,50,68,45,23,30.21,30.15,30.08,10,10,10,16,5,23,0.00,2,,117
2013-9-3,94,80,65,56,50,41,65,41,16,30.22,30.16,30.10,10,10,10,14,7,20,0.00,0,,165
2013-9-4,96,78,59,54,48,40,81,39,15,30.25,30.20,30.15,10,10,7,14,6,25,0.00,0,,177
2013-9-5,95,76,57,49,43,38,71,35,14,30.27,30.22,30.17,10,10,7,14,5,20,0.00,0,,181
2013-9-6,94,74,56,54,48,41,66,39,19,30.24,30.19,30.11,10,10,7,16,7,21,0.00,0,,196
2013-9-7,94,76,59,61,53,48,74,45,21,30.18,30.13,30.07,10,10,4,15,7,29,0.00,1,Rain,201
2013-9-8,93,76,61,57,52,48,80,46,22,30.13,30.07,29.98,10,10,7,15,6,23,0.00,0,,179
2013-9-9,89,74,59,61,54,50,83,51,27,30.07,30.03,29.96,10,10,10,22,11,29,0.00,1,,178
2013-9-10,87,74,62,62,57,54,80,57,33,30.17,30.11,30.06,10,10,10,21,9,28,0.00,1,,162
2013-9-11,79,72,66,63,61,59,83,66,50,30.22,30.18,30.15,10,10,5,18,10,24,0.00,5,,158
2013-9-12,87,76,64,65,56,48,87,56,26,30.24,30.18,30.13,10,10,10,18,5,25,0.01,3,Rain,157
2013-9-13,88,76,65,63,55,49,87,54,27,30.16,30.11,30.01,10,10,7,22,8,31,0.00,4,Rain,142
2013-9-14,86,74,62,63,56,47,91,60,27,30.10,30.05,30.00,10,9,5,20,8,29,0.00,4,,162
2013-9-15,86,72,60,59,51,45,73,47,25,30.19,30.10,30.04,10,10,10,18,8,24,0.00,3,Thunderstorm,186
2013-9-16,81,70,60,63,60,58,92,80,47,30.27,30.22,30.16,10,9,2,18,10,25,0.17,4,Rain-Thunderstorm,79
2013-9-17,81,70,61,64,61,59,93,76,48,30.22,30.14,30.04,10,9,3,18,9,25,0.12,3,Rain-Thunderstorm,189
2013-9-18,87,75,63,63,60,54,91,64,33,30.09,30.02,29.93,10,10,10,22,13,28,0.00,1,,195
2013-9-19,84,72,60,66,61,54,92,74,47,30.07,30.01,29.94,10,10,2,24,11,30,0.24,4,Rain-Thunderstorm,192
2013-9-20,70,64,60,61,57,53,93,78,58,30.18,30.13,30.03,10,10,3,17,8,25,0.00,7,Rain,47
2013-9-21,82,65,49,54,51,47,92,65,35,30.17,30.09,29.97,10,10,7,16,6,22,0.00,1,,201
2013-9-22,85,68,51,56,47,39,92,54,21,30.00,29.91,29.80,10,10,7,24,11,32,0.00,0,,187
2013-9-23,83,70,55,45,40,31,64,40,17,30.00,29.85,29.80,10,10,10,22,12,26,0.00,1,,254
2013-9-24,84,66,48,48,43,37,84,49,19,30.18,30.09,30.00,10,10,10,9,5,,0.00,0,,119
2013-9-25,90,70,51,49,39,30,71,39,12,30.05,29.92,29.80,10,10,7,22,9,32,0.00,0,,202
2013-9-26,94,76,57,52,45,37,76,36,15,29.88,29.83,29.80,10,10,10,24,13,34,0.00,1,,198
2013-9-27,87,74,61,66,56,47,79,57,32,29.91,29.86,29.79,10,10,7,20,13,41,0.00,2,Rain-Thunderstorm,186
2013-9-28,71,60,48,46,36,29,76,43,21,30.24,30.14,29.91,10,10,10,23,9,29,0.00,1,Thunderstorm,28
2013-9-29,84,60,37,38,33,26,82,43,12,30.25,30.11,29.96,10,10,10,18,6,24,0.00,0,,217
2013-9-30,89,67,45,37,30,22,59,30,9,29.96,29.89,29.84,10,10,10,13,7,16,0.00,0,,210